Location: Wiler
(46.4041°N, 7.7840°E)
Time: 18:03:14
(UTC+00:00)

Cosmos 2322 Rocket - Pass Details

Date: 09 April 2020
Orbit: 834 x 849 km, 71.0° (Epoch: 25 May)

Event Time Altitude Azimuth Distance (km) Brightness Sun altitude
Rises 23:19:36 0° 330° (NNW) 3,403 6.1 -35.5°
Reaches altitude 10° 23:22:05 10° 326° (NNW) 2,462 5.2 -35.5°
Enters shadow 23:24:50 29° 315° (NW) 1,499 3.8 -35.5°
